TimeEDT,TemperatureF,Dew PointF,Humidity,Sea Level PressureIn,VisibilityMPH,Wind Direction,Wind SpeedMPH,Gust SpeedMPH,PrecipitationIn,Events,Conditions,WindDirDegrees,DateUTC
12:15 AM,55.4,53.6,94,30.14,10.0,SW,5.8,-,N/A,,Clear,220,2013-09-16 04:15:00
12:35 AM,55.4,55.4,100,30.14,10.0,SW,6.9,-,N/A,,Clear,220,2013-09-16 04:35:00
12:55 AM,55.4,55.4,100,30.13,10.0,SW,5.8,-,N/A,,Clear,230,2013-09-16 04:55:00
1:15 AM,55.4,55.4,100,30.13,10.0,SW,6.9,-,N/A,,Clear,220,2013-09-16 05:15:00
1:35 AM,55.4,55.4,100,30.13,10.0,SW,5.8,-,N/A,,Scattered Clouds,220,2013-09-16 05:35:00
1:55 AM,55.4,55.4,100,30.13,10.0,SW,8.1,-,N/A,,Mostly Cloudy,220,2013-09-16 05:55:00
2:15 AM,57.2,55.4,94,30.13,10.0,SW,9.2,-,N/A,,Overcast,230,2013-09-16 06:15:00
2:35 AM,57.2,57.2,100,30.13,10.0,WSW,6.9,-,N/A,,Overcast,240,2013-09-16 06:35:00
2:55 AM,57.2,57.2,100,30.12,10.0,SW,9.2,-,N/A,,Mostly Cloudy,230,2013-09-16 06:55:00
3:15 AM,59.0,57.2,94,30.11,10.0,SW,9.2,17.3,N/A,,Overcast,230,2013-09-16 07:15:00
3:35 AM,59.0,59.0,100,30.11,10.0,WSW,9.2,-,N/A,,Overcast,240,2013-09-16 07:35:00
3:55 AM,59.0,59.0,100,30.11,10.0,SW,10.4,16.1,N/A,,Overcast,230,2013-09-16 07:55:00
4:15 AM,59.0,59.0,100,30.11,10.0,West,9.2,16.1,N/A,,Overcast,270,2013-09-16 08:15:00
4:35 AM,55.4,55.4,100,30.12,7.0,NW,8.1,-,N/A,,Overcast,310,2013-09-16 08:35:00
4:55 AM,53.6,-9999,N/A,30.13,0.2,NNW,9.2,-,N/A,Fog,Fog,340,2013-09-16 08:55:00
5:15 AM,51.8,-9999,N/A,30.14,0.2,North,8.1,18.4,N/A,Fog,Fog,360,2013-09-16 09:15:00
5:35 AM,51.8,-9999,N/A,30.14,0.2,North,4.6,-,N/A,Fog,Fog,350,2013-09-16 09:35:00
5:55 AM,51.8,-9999,N/A,30.16,0.2,NNW,5.8,-,N/A,Fog,Fog,340,2013-09-16 09:55:00
6:15 AM,50.0,-9999,N/A,30.16,0.2,North,6.9,-,N/A,Fog,Fog,350,2013-09-16 10:15:00
6:35 AM,50.0,-9999,N/A,30.16,0.2,North,4.6,-,N/A,Fog,Fog,350,2013-09-16 10:35:00
6:55 AM,50.0,-9999,N/A,30.16,0.2,Calm,Calm,-,N/A,Fog,Fog,0,2013-09-16 10:55:00
7:15 AM,50.0,-9999,N/A,30.16,0.2,Calm,Calm,-,N/A,Fog,Fog,0,2013-09-16 11:15:00
7:35 AM,50.0,-9999,N/A,30.17,0.2,Calm,Calm,-,N/A,Fog,Fog,0,2013-09-16 11:35:00
8:15 AM,50.0,-9999,N/A,30.18,0.2,Calm,Calm,-,N/A,Fog,Fog,0,2013-09-16 12:15:00
10:55 AM,50.0,-9999,N/A,30.22,0.8,North,4.6,-,N/A,,Overcast,350,2013-09-16 14:55:00
11:15 AM,50.0,-9999,N/A,30.23,0.5,NNW,3.5,-,N/A,Fog,Fog,330,2013-09-16 15:15:00
11:35 AM,51.8,-9999,N/A,30.23,5.0,NNW,4.6,-,N/A,,Haze,330,2013-09-16 15:35:00
11:55 AM,51.8,-9999,N/A,30.23,5.0,North,5.8,-,N/A,,Haze,350,2013-09-16 15:55:00
12:15 PM,51.8,-9999,N/A,30.23,7.0,North,3.5,-,N/A,,Overcast,350,2013-09-16 16:15:00
12:35 PM,51.8,-9999,N/A,30.24,10.0,North,5.8,-,N/A,,Overcast,350,2013-09-16 16:35:00
12:55 PM,53.6,53.6,100,30.23,10.0,NNW,5.8,-,N/A,,Overcast,340,2013-09-16 16:55:00
1:15 PM,51.8,51.8,100,30.24,10.0,NW,4.6,-,N/A,,Overcast,320,2013-09-16 17:15:00
1:35 PM,53.6,53.6,100,30.24,10.0,NNW,3.5,-,N/A,,Overcast,330,2013-09-16 17:35:00
1:55 PM,51.8,51.8,100,30.24,10.0,NNW,4.6,-,N/A,,Overcast,330,2013-09-16 17:55:00
2:15 PM,53.6,53.6,100,30.24,10.0,NW,5.8,-,N/A,,Overcast,320,2013-09-16 18:15:00
2:35 PM,55.4,55.4,100,30.24,10.0,NW,5.8,-,N/A,,Overcast,310,2013-09-16 18:35:00
2:55 PM,55.4,53.6,94,30.24,10.0,North,5.8,-,N/A,,Overcast,350,2013-09-16 18:55:00
3:15 PM,55.4,51.8,88,30.23,10.0,NW,5.8,-,N/A,,Unknown,320,2013-09-16 19:15:00
3:35 PM,57.2,51.8,82,30.23,10.0,NW,5.8,-,N/A,,Scattered Clouds,320,2013-09-16 19:35:00
3:55 PM,59.0,51.8,77,30.23,10.0,NW,5.8,-,N/A,,Clear,320,2013-09-16 19:55:00
4:15 PM,57.2,51.8,82,30.23,10.0,NW,8.1,-,N/A,,Scattered Clouds,320,2013-09-16 20:15:00
4:35 PM,55.4,51.8,88,30.23,10.0,WNW,4.6,-,N/A,,Mostly Cloudy,300,2013-09-16 20:35:00
4:55 PM,59.0,51.8,77,30.23,10.0,NNW,5.8,-,N/A,,Scattered Clouds,330,2013-09-16 20:55:00
5:15 PM,59.0,51.8,77,30.23,10.0,NNW,6.9,-,N/A,,Clear,330,2013-09-16 21:15:00
5:35 PM,55.4,51.8,88,30.24,10.0,Calm,Calm,-,N/A,,Clear,0,2013-09-16 21:35:00
5:55 PM,59.0,51.8,77,30.24,10.0,WNW,3.5,-,N/A,,Clear,300,2013-09-16 21:55:00
6:15 PM,57.2,50.0,77,30.24,10.0,NW,4.6,-,N/A,,Scattered Clouds,310,2013-09-16 22:15:00
6:35 PM,55.4,51.8,88,30.25,10.0,Calm,Calm,-,N/A,,Clear,0,2013-09-16 22:35:00
6:55 PM,53.6,51.8,94,30.25,10.0,NNW,3.5,-,N/A,,Scattered Clouds,330,2013-09-16 22:55:00
7:15 PM,53.6,51.8,94,30.25,10.0,Calm,Calm,-,N/A,,Scattered Clouds,0,2013-09-16 23:15:00
7:35 PM,51.8,51.8,100,30.25,10.0,Calm,Calm,-,N/A,,Clear,0,2013-09-16 23:35:00
7:55 PM,51.8,51.8,100,30.26,10.0,West,4.6,-,N/A,,Clear,280,2013-09-16 23:55:00
8:15 PM,51.8,51.8,100,30.27,10.0,West,4.6,-,N/A,,Clear,280,2013-09-17 00:15:00
8:35 PM,51.8,51.8,100,30.28,10.0,West,5.8,-,N/A,,Clear,270,2013-09-17 00:35:00
8:55 PM,51.8,51.8,100,30.28,10.0,West,4.6,-,N/A,,Clear,270,2013-09-17 00:55:00
9:15 PM,51.8,51.8,100,30.28,10.0,West,4.6,-,N/A,,Scattered Clouds,270,2013-09-17 01:15:00
9:35 PM,51.8,51.8,100,30.29,10.0,West,4.6,-,N/A,,Scattered Clouds,270,2013-09-17 01:35:00
9:55 PM,53.6,51.8,94,30.29,10.0,West,4.6,-,N/A,,Overcast,280,2013-09-17 01:55:00
10:15 PM,51.8,51.8,100,30.29,10.0,NW,3.5,-,N/A,,Overcast,320,2013-09-17 02:15:00
10:35 PM,51.8,51.8,100,30.30,10.0,NNW,3.5,-,N/A,,Mostly Cloudy,330,2013-09-17 02:35:00
10:55 PM,50.0,50.0,100,30.31,10.0,NNW,3.5,-,N/A,,Mostly Cloudy,340,2013-09-17 02:55:00
11:15 PM,50.0,50.0,100,30.31,10.0,North,3.5,-,N/A,,Mostly Cloudy,350,2013-09-17 03:15:00
11:35 PM,50.0,-9999,N/A,30.31,10.0,North,3.5,-,N/A,,Scattered Clouds,350,2013-09-17 03:35:00
11:55 PM,50.0,-9999,N/A,30.31,10.0,North,3.5,-,N/A,,Scattered Clouds,350,2013-09-17 03:55:00